Weather History for Craig, CO

Change the Weather History Date:

Sunday, June 16, 2013

  Actual Average Record
Temperature  
Mean Temperature 61 °F 60 °F  
Max Temperature 82 °F 79 °F 93 °F (2007)
Min Temperature 40 °F 41 °F 35 °F (2001)
Degree Days  
Heating Degree Days 4 6  
Month to date heating degree days 68 124  
Since 1 June heating degree days 68 124  
Since 1 July heating degree days 8567 8583  
Cooling Degree Days 0 0  
Month to date cooling degree days 7 0  
Year to date cooling degree days 7 0  
Since 1 June cooling degree days 7 0  
Growing Degree Days 12 (Base 50)    
Moisture  
Dew Point 37 °F    
Average Humidity 48    
Maximum Humidity 79    
Minimum Humidity 16    
Precipitation  
Precipitation T in 0.05 in 0.82 in (1998)
Month to date precipitation T 0.82  
Year to date precipitation 5.25 7.01  
Sea Level Pressure  
Sea Level Pressure 30.02 in    
Wind  
Wind Speed 8 mph (East)    
Max Wind Speed 18 mph    
Max Gust Speed 23 mph    
Visibility 10 miles    
Events Rain , Thunderstorm    
T = Trace of Precipitation, MM = Missing Value Source: NWS Daily Summary

Daily Weather History Graph

Daily Weather History Graph

Search for Another Location

Airport:

Trip Planner

Search our weather history database for the weather conditions in past years. The results will help you decide how hot, cold, wet, or windy it might be!

Date:

Astronomy

Jun. 16, 2013 Rise Set
Actual Time 5:39 AM MDT 8:42 PM MDT
Civil Twilight 5:05 AM MDT 9:15 PM MDT
Nautical Twilight 4:23 AM MDT 9:58 PM MDT
Astronomical Twilight 3:33 AM MDT 10:48 PM MDT
Moon 1:19 PM MDT (6/16) 12:47 AM MDT (6/16)
Length of Visible Light 16h 10m
Length of Day
15h 03m
Waxing Crescent, 50% of the Moon is Illuminated
Jun 16
Waxing Crescent
Jun 23
Full
Jun 29
Last Quarter
Jul 8
New
Jul 15
First Quarter

Hourly Weather History & Observations

Time (MDT) Temp. Windchill Dew Point Humidity Pressure Visibility Wind Dir Wind Speed Gust Speed Precip Events Conditions
12:53 AM 55.0 °F - 32.0 °F 42% 29.94 in 10.0 mi ENE 3.5 mph - N/A   Clear
1:53 AM 51.1 °F - 37.0 °F 59% 29.97 in 10.0 mi SE 5.8 mph - N/A   Clear
2:53 AM 48.0 °F - 34.0 °F 58% 29.96 in 10.0 mi Calm Calm - N/A   Clear
3:53 AM 44.1 °F 42.5 °F 35.1 °F 71% 29.99 in 10.0 mi NNW 3.5 mph - N/A   Clear
4:53 AM 45.0 °F 42.6 °F 35.1 °F 68% 30.00 in 10.0 mi ENE 4.6 mph - N/A   Clear
5:53 AM 41.0 °F 39.0 °F 35.1 °F 79% 30.02 in 10.0 mi West 3.5 mph - N/A   Clear
6:53 AM 48.9 °F - 36.0 °F 61% 30.01 in 10.0 mi Calm Calm - N/A   Clear
7:53 AM 57.9 °F - 37.9 °F 47% 30.00 in 10.0 mi Calm Calm - N/A   Clear
8:53 AM 62.1 °F - 39.0 °F 43% 30.03 in 10.0 mi Variable 3.5 mph - N/A   Clear
9:53 AM 64.0 °F - 41.0 °F 43% 30.05 in 10.0 mi SSE 5.8 mph - N/A   Clear
10:53 AM 73.9 °F - 35.1 °F 24% 30.03 in 10.0 mi Variable 3.5 mph - N/A   Clear
11:53 AM 73.9 °F - 36.0 °F 25% 30.04 in 10.0 mi Variable 3.5 mph - N/A   Clear
12:53 PM 75.9 °F - 39.9 °F 27% 30.01 in 10.0 mi SSE 3.5 mph - N/A   Clear
1:53 PM 81.0 °F - 36.0 °F 20% 29.98 in 10.0 mi SSE 11.5 mph 21.9 mph N/A   Clear
2:53 PM 80.1 °F - 30.9 °F 17% 29.96 in 10.0 mi Variable 3.5 mph - N/A   Partly Cloudy
3:38 PM 73.4 °F - 33.8 °F 23% 30.19 in 10.0 mi WSW 28.8 mph 39.1 mph N/A Thunderstorm Thunderstorm
3:53 PM 66.9 °F - 41.0 °F 39% 30.09 in 10.0 mi NNW 17.3 mph 25.3 mph 0.00 in Rain , Thunderstorm Light Thunderstorms and Rain
4:00 PM 64.4 °F - 41.0 °F 42% 30.23 in 10.0 mi North 11.5 mph 28.8 mph 0.00 in Thunderstorm Overcast
4:17 PM 64.4 °F - 42.8 °F 45% 30.22 in 10.0 mi North 13.8 mph 25.3 mph 0.00 in   Overcast
4:53 PM 71.1 °F - 42.1 °F 35% 30.06 in 10.0 mi NE 18.4 mph 24.2 mph 0.00 in   Scattered Clouds
5:53 PM 70.0 °F - 42.1 °F 36% 30.05 in 10.0 mi East 24.2 mph 28.8 mph N/A   Clear
6:53 PM 70.0 °F - 39.0 °F 32% 29.98 in 10.0 mi East 17.3 mph 25.3 mph N/A   Clear
7:53 PM 66.9 °F - 37.0 °F 33% 29.98 in 10.0 mi East 15.0 mph 24.2 mph N/A   Clear
8:53 PM 61.0 °F - 42.1 °F 50% 30.01 in 10.0 mi East 9.2 mph - N/A   Clear
9:53 PM 64.0 °F - 37.0 °F 37% 29.99 in 10.0 mi ESE 16.1 mph 24.2 mph N/A   Clear
10:53 PM 64.9 °F - 36.0 °F 34% 29.95 in 10.0 mi ESE 13.8 mph 24.2 mph N/A   Clear
11:53 PM 64.9 °F - 37.9 °F 37% 29.97 in 10.0 mi Calm Calm - N/A   Clear